Location: Stilling
(56.0622°N, 9.9882°E)
Time: 00:22:38
(UTC+00:00)

Cosmos 1452 Rocket - Pass Details

Date: 13 July 2020
Orbit: 768 x 774 km, 74.1° (Epoch: 03 August)

Event Time Altitude Azimuth Distance (km) Brightness Sun altitude
Rises 21:58:23 0° 329° (NNW) 3,259 8.8 -10.1°
Reaches altitude 10° 22:00:50 10° 324° (NW) 2,326 7.4 -10.2°
Maximum altitude 22:05:52 47° 252° (WSW) 1,017 4.2 -10.5°
Enters shadow 22:10:24 13° 181° (S) 2,135 5.2 -10.7°
